• In Hungary
  • List of Countries
  • For 7 days
  • Water Temperature
  • Satellite Maps
  • Weather Map
  • News
  • Weather Widgets
  • user-avatar
    Login

    Hourly Weather Podhulanka

    Today, 18 October, Wednesday

    Time Temperature Precipitation Wind Pressure Humidity
    00:00 +15°C° 0 mm 2 mps 754 mmHg 81%
    01:00 +15°C° 0 mm 2 mps 754 mmHg 83%
    02:00 +14°C° 0 mm 2 mps 753 mmHg 85%
    03:00 +14°C° 0 mm 2 mps 753 mmHg 86%
    04:00 +14°C° 0 mm 2 mps 753 mmHg 88%
    05:00 +13°C° 0 mm 2 mps 753 mmHg 88%
    06:00 +13°C° 0 mm 2 mps 753 mmHg 89%
    07:00 +13°C° 0 mm 2 mps 753 mmHg 89%
    08:00 +15°C° 0 mm 2 mps 753 mmHg 83%
    09:00 +16°C° 0 mm 2 mps 753 mmHg 76%
    10:00 +18°C° 0 mm 2 mps 753 mmHg 69%
    11:00 +18°C° 0 mm 2 mps 753 mmHg 65%
    12:00 +19°C° 0 mm 2 mps 752 mmHg 61%
    13:00 +21°C° 0 mm 1 mps 752 mmHg 57%
    14:00 +21°C° 0 mm 1 mps 752 mmHg 60%
    15:00 +20°C° 0 mm 1 mps 752 mmHg 63%
    16:00 +17°C° 0 mm 0 mps 751 mmHg 66%
    17:00 +16°C° 0 mm 0 mps 751 mmHg 69%
    18:00 +16°C° 0 mm 0 mps 751 mmHg 71%
    19:00 +15°C° 0 mm 0 mps 751 mmHg 74%
    20:00 +15°C° 0 mm 1 mps 751 mmHg 75%
    21:00 +15°C° 0 mm 1 mps 751 mmHg 76%
    22:00 +14°C° 0 mm 1 mps 751 mmHg 77%
    23:00 +14°C° 0 mm 1 mps 751 mmHg 79%

    Tomorrow, 19 October, Thursday

    Time Temperature Precipitation Wind Pressure Humidity
    00:00 +14°C° 0 mm 2 mps 751 mmHg 80%
    01:00 +13°C° 0 mm 2 mps 752 mmHg 82%
    02:00 +13°C° 0 mm 2 mps 751 mmHg 83%
    03:00 +12°C° 0 mm 2 mps 751 mmHg 85%
    04:00 +12°C° 0 mm 2 mps 751 mmHg 86%
    05:00 +12°C° 0 mm 2 mps 751 mmHg 87%
    06:00 +12°C° 0 mm 2 mps 752 mmHg 88%
    07:00 +10°C° 0 mm 2 mps 752 mmHg 89%
    08:00 +13°C° 0 mm 2 mps 752 mmHg 84%
    09:00 +14°C° 0 mm 2 mps 752 mmHg 78%
    10:00 +16°C° 0 mm 3 mps 752 mmHg 73%
    11:00 +17°C° 0 mm 3 mps 752 mmHg 70%
    12:00 +17°C° 0 mm 3 mps 752 mmHg 67%
    13:00 +18°C° 0 mm 2 mps 752 mmHg 64%
    14:00 +18°C° 0 mm 2 mps 752 mmHg 67%
    15:00 +17°C° 0 mm 2 mps 752 mmHg 69%
    16:00 +17°C° 0 mm 2 mps 752 mmHg 72%
    17:00 +16°C° 0 mm 3 mps 752 mmHg 75%
    18:00 +14°C° 0 mm 3 mps 753 mmHg 79%
    19:00 +13°C° 0 mm 3 mps 753 mmHg 82%
    20:00 +12°C° 0 mm 3 mps 753 mmHg 83%
    21:00 +12°C° 0 mm 4 mps 754 mmHg 84%
    22:00 +11°C° 0 mm 4 mps 754 mmHg 85%
    23:00 +11°C° 0 mm 4 mps 754 mmHg 87%

    Day after tomorrow, 20 October, Friday

    Time Temperature Precipitation Wind Pressure Humidity
    00:00 +11°C° 0 mm 3 mps 754 mmHg 88%
    01:00 +10°C° 0 mm 3 mps 754 mmHg 89%
    02:00 +10°C° 0 mm 3 mps 754 mmHg 90%
    03:00 +10°C° 0 mm 3 mps 754 mmHg 90%
    04:00 +10°C° 0 mm 3 mps 754 mmHg 91%
    05:00 +10°C° 0 mm 3 mps 754 mmHg 91%
    06:00 +8°C° 0 mm 4 mps 755 mmHg 91%
    07:00 +8°C° 0 mm 4 mps 755 mmHg 90%
    08:00 +10°C° 0 mm 4 mps 755 mmHg 86%
    09:00 +12°C° 0 mm 4 mps 755 mmHg 81%
    10:00 +13°C° 0 mm 4 mps 755 mmHg 77%
    11:00 +14°C° 0 mm 4 mps 755 mmHg 74%
    12:00 +15°C° 0 mm 4 mps 755 mmHg 70%
    13:00 +17°C° 0 mm 4 mps 755 mmHg 67%
    14:00 +15°C° 0 mm 4 mps 755 mmHg 69%
    15:00 +15°C° 0 mm 4 mps 755 mmHg 71%
    16:00 +14°C° 0 mm 3 mps 755 mmHg 73%
    17:00 +13°C° 0 mm 4 mps 755 mmHg 76%
    18:00 +12°C° 0 mm 4 mps 755 mmHg 79%
    19:00 +11°C° 0 mm 4 mps 755 mmHg 81%
    20:00 +11°C° 0 mm 4 mps 755 mmHg 82%
    21:00 +11°C° 0 mm 4 mps 756 mmHg 83%
    22:00 +10°C° 0 mm 4 mps 756 mmHg 84%
    23:00 +10°C° 0 mm 4 mps 755 mmHg 86%

    21 October, Saturday

    Time Temperature Precipitation Wind Pressure Humidity
    00:00 +10°C° 0 mm 3 mps 755 mmHg 87%
    01:00 +10°C° 0 mm 3 mps 755 mmHg 89%
    02:00 +10°C° 0 mm 3 mps 755 mmHg 89%
    03:00 +10°C° 0 mm 3 mps 755 mmHg 90%
    04:00 +10°C° 0 mm 4 mps 755 mmHg 91%
    05:00 +10°C° 0 mm 4 mps 755 mmHg 91%
    06:00 +10°C° 0 mm 4 mps 755 mmHg 92%
    07:00 +9°C° 0 mm 3 mps 755 mmHg 92%
    08:00 +11°C° 0 mm 4 mps 755 mmHg 88%
    09:00 +12°C° 0 mm 4 mps 755 mmHg 84%
    10:00 +13°C° 0 mm 4 mps 755 mmHg 80%
    11:00 +14°C° 0 mm 4 mps 755 mmHg 77%
    12:00 +15°C° 0 mm 4 mps 754 mmHg 74%
    13:00 +17°C° 0 mm 4 mps 754 mmHg 70%
    14:00 +15°C° 0 mm 4 mps 754 mmHg 72%
    15:00 +16°C° 0 mm 3 mps 754 mmHg 74%
    16:00 +16°C° 0 mm 3 mps 754 mmHg 76%
    17:00 +14°C° 0 mm 3 mps 754 mmHg 79%
    18:00 +13°C° 0 mm 3 mps 754 mmHg 83%
    19:00 +12°C° 0 mm 4 mps 754 mmHg 86%
    20:00 +12°C° 0 mm 4 mps 754 mmHg 87%
    21:00 +11°C° 0 mm 4 mps 754 mmHg 89%
    22:00 +11°C° 0 mm 4 mps 754 mmHg 90%
    23:00 +11°C° 0 mm 4 mps 754 mmHg 91%

    22 October, Sunday

    Time Temperature Precipitation Wind Pressure Humidity
    00:00 +11°C° 0 mm 4 mps 754 mmHg 92%
    01:00 +10°C° 0 mm 4 mps 754 mmHg 93%
    02:00 +10°C° 0 mm 3 mps 754 mmHg 92%
    03:00 +10°C° 0 mm 3 mps 753 mmHg 92%
    04:00 +10°C° 0 mm 3 mps 753 mmHg 92%
    05:00 +10°C° 0 mm 3 mps 753 mmHg 91%
    06:00 +10°C° 0 mm 3 mps 753 mmHg 91%
    07:00 +10°C° 0 mm 3 mps 753 mmHg 90%
    08:00 +11°C° 0.4 mm 3 mps 753 mmHg 89%
    09:00 +12°C° 0.4 mm 2 mps 753 mmHg 88%
    10:00 +13°C° 0.4 mm 2 mps 753 mmHg 87%
    11:00 +13°C° 0.7 mm 2 mps 753 mmHg 88%
    12:00 +13°C° 0.7 mm 2 mps 752 mmHg 89%
    13:00 +14°C° 0.7 mm 2 mps 752 mmHg 90%
    14:00 +13°C° 0.3 mm 2 mps 752 mmHg 90%
    15:00 +13°C° 0.3 mm 2 mps 752 mmHg 91%
    16:00 +13°C° 0.3 mm 2 mps 752 mmHg 92%
    17:00 +12°C° 0.3 mm 3 mps 752 mmHg 91%
    18:00 +12°C° 0.3 mm 3 mps 752 mmHg 91%
    19:00 +12°C° 0.3 mm 4 mps 752 mmHg 90%
    20:00 +11°C° 0.3 mm 4 mps 753 mmHg 90%
    21:00 +11°C° 0.3 mm 4 mps 753 mmHg 89%
    22:00 +11°C° 0.3 mm 4 mps 753 mmHg 89%
    23:00 +10°C° 0.6 mm 4 mps 753 mmHg 89%

    23 October, Monday

    Time Temperature Precipitation Wind Pressure Humidity
    00:00 +10°C° 0.6 mm 4 mps 753 mmHg 90%
    01:00 +10°C° 0.6 mm 4 mps 753 mmHg 90%
    02:00 +10°C° 0.4 mm 4 mps 753 mmHg 89%
    03:00 +10°C° 0.4 mm 4 mps 753 mmHg 88%
    04:00 +10°C° 0.4 mm 4 mps 753 mmHg 88%
    05:00 +8°C° 0.1 mm 5 mps 753 mmHg 88%
    06:00 +8°C° 0.1 mm 5 mps 754 mmHg 88%
    07:00 +7°C° 0.1 mm 5 mps 754 mmHg 88%
    08:00 +8°C° 0 mm 5 mps 754 mmHg 84%
    09:00 +8°C° 0 mm 6 mps 754 mmHg 80%
    10:00 +9°C° 0 mm 6 mps 754 mmHg 77%
    11:00 +9°C° 0 mm 6 mps 754 mmHg 73%
    12:00 +10°C° 0 mm 6 mps 754 mmHg 69%
    13:00 +10°C° 0 mm 6 mps 754 mmHg 65%
    14:00 +10°C° 0 mm 6 mps 754 mmHg 67%
    15:00 +10°C° 0 mm 5 mps 754 mmHg 69%
    16:00 +10°C° 0 mm 4 mps 754 mmHg 71%
    17:00 +10°C° 0 mm 4 mps 754 mmHg 73%
    18:00 +8°C° 0 mm 4 mps 754 mmHg 74%
    19:00 +8°C° 0 mm 4 mps 754 mmHg 76%
    20:00 +8°C° 0.2 mm 5 mps 754 mmHg 77%
    21:00 +8°C° 0.2 mm 6 mps 754 mmHg 78%
    22:00 +9°C° 0.2 mm 6 mps 753 mmHg 78%
    23:00 +9°C° 0.1 mm 6 mps 753 mmHg 79%
    Show more